This is the latest recevied weather packets stored in our database for station/object DH8TOM-2. If no packets are shown the sender has not sent any weather packets the latest 1 day(s).
| Time | Temp. | Humidity | Pressure | Rain* | Wind** | Luminosity | Snow |
|---|---|---|---|---|---|---|---|
| 1778060507 | 16.67° C | 75% | 1003.8 hPa | 0 mm | - | - | - |
| 1778060206 | 16.67° C | 75% | 1003.8 hPa | 0 mm | - | - | - |
| 1778059905 | 16.67° C | 77% | 1003.8 hPa | 0 mm | - | - | - |
| 1778059604 | 16.67° C | 77% | 1003.8 hPa | 0 mm | - | - | - |
| 1778059304 | 16.11° C | 79% | 1003.8 hPa | 0 mm | - | - | - |
| 1778059002 | 16.11° C | 79% | 1003.8 hPa | 0 mm | - | - | - |
| 1778058701 | 16.11° C | 77% | 1003.8 hPa | 0 mm | - | - | - |
| 1778058401 | 16.11° C | 77% | 1003.8 hPa | 0 mm | - | - | - |
| 1778058099 | 16.11° C | 80% | 1003.7 hPa | 0 mm | - | - | - |
| 1778057196 | 16.11° C | 82% | 1003.7 hPa | 0 mm | - | - | - |
| 1778056895 | 15.56° C | 85% | 1003.7 hPa | 0 mm | - | - | - |
| 1778056594 | 15.56° C | 85% | 1003.7 hPa | 0 mm | - | - | - |
| 1778055992 | 15° C | 87% | 1003.8 hPa | 0 mm | - | - | - |
| 1778055692 | 14.44° C | 91% | 1003.8 hPa | 0 mm | - | - | - |
| 1778055099 | 13.89° C | 92% | 1003.9 hPa | 0 mm | - | - | - |
| 1778054788 | 13.89° C | 92% | 1003.9 hPa | 0 mm | - | - | - |
| 1778054487 | 13.33° C | 92% | 1003.9 hPa | 0 mm | - | - | - |
| 1778053584 | 12.78° C | 92% | 1003.9 hPa | 0 mm | - | - | - |
| 1778053283 | 12.78° C | 93% | 1003.9 hPa | 0 mm | - | - | - |
| 1778052982 | 12.78° C | 93% | 1003.9 hPa | 0 mm | - | - | - |
| 1778052681 | 12.22° C | 94% | 1003.8 hPa | 0 mm | - | - | - |
| 1778051778 | 11.67° C | 97% | 1003.8 hPa | 0 mm | - | - | - |
| 1778051477 | 11.11° C | 97% | 1003.8 hPa | 0 mm | - | - | - |
| 1778050875 | 10.56° C | 97% | 1003.8 hPa | 0 mm | - | - | - |
| 1778050574 | 10.56° C | 97% | 1003.8 hPa | 0 mm | - | - | - |
* Rain latest hour (hover to see other rain measurements)
** Current wind speed in m/s (hover to see current wind gust speed)